"2018/01/01",1013.0,1015.3,1011.0
"2018/01/02",1014.6,1017.8,1010.4
"2018/01/03",1013.5,1017.9,1010.0
"2018/01/04",1018.8,1020.5,1016.9
"2018/01/05",1016.2,1019.5,1011.6
"2018/01/06",1011.7,1014.8,1009.7
"2018/01/07",1020.3,1025.2,1014.5
"2018/01/08",1015.8,1024.0,1000.9
"2018/01/09", 996.9,1005.2, 990.8
"2018/01/10",1007.3,1009.5,1005.0
"2018/01/11",1012.4,1016.6,1008.0
"2018/01/12",1020.0,1023.7,1016.1
"2018/01/13",1023.0,1024.3,1021.0
"2018/01/14",1029.1,1031.2,1024.2
"2018/01/15",1024.4,1030.7,1019.7
"2018/01/16",1020.4,1023.7,1017.3
"2018/01/17",1014.0,1018.3,1007.5
"2018/01/18",1013.6,1016.6,1007.5
"2018/01/19",1019.4,1021.5,1016.4
"2018/01/20",1018.4,1020.4,1016.3
"2018/01/21",1017.1,1020.1,1015.0
"2018/01/22",1016.9,1022.5,1006.8
"2018/01/23",1006.1,1008.7,1001.8
"2018/01/24",1006.9,1009.3,1002.5
"2018/01/25",1010.4,1011.9,1008.3
"2018/01/26",1008.0,1011.0,1006.2
"2018/01/27",1015.2,1019.8,1010.8
"2018/01/28",1016.6,1020.6,1009.4
"2018/01/29",1007.8,1009.7,1006.0
"2018/01/30",1016.3,1021.3,1008.5
"2018/01/31",1022.3,1024.1,1020.9
"2018/02/01",1025.5,1027.6,1022.6
"2018/02/02",1025.0,1027.0,1021.5
"2018/02/03",1016.6,1021.8,1012.9
"2018/02/04",1010.2,1013.1,1006.9
"2018/02/05",1011.2,1014.0,1009.5
"2018/02/06",1011.7,1013.5,1010.2
"2018/02/07",1013.9,1018.4,1011.7
"2018/02/08",1020.1,1024.5,1017.9
"2018/02/09",1025.8,1028.0,1024.2
"2018/02/10",1019.4,1026.2,1009.2
"2018/02/11",1005.0,1009.2,1002.1
"2018/02/12",1010.4,1012.0,1008.6
"2018/02/13",1014.4,1020.0,1011.5
"2018/02/14",1017.7,1022.4,1011.4
"2018/02/15",1012.4,1016.5,1009.6
"2018/02/16",1015.5,1018.6,1009.7
"2018/02/17",1007.0,1014.5,1002.0
"2018/02/18",1019.2,1022.6,1014.4
"2018/02/19",1020.4,1023.4,1017.3
"2018/02/20",1016.0,1017.8,1014.3
"2018/02/21",1016.7,1018.8,1014.2
"2018/02/22",1021.8,1023.8,1018.7
"2018/02/23",1021.1,1023.8,1018.8
"2018/02/24",1022.8,1025.4,1018.9
"2018/02/25",1025.9,1028.8,1023.6
"2018/02/26",1023.1,1025.1,1021.3
"2018/02/27",1023.4,1026.6,1020.4
"2018/02/28",1021.5,1024.0,1013.6
"2018/03/01", 994.7,1013.8, 986.5
"2018/03/02",1007.6,1016.2, 997.8
"2018/03/03",1018.8,1020.9,1015.9
"2018/03/04",1019.3,1021.2,1016.9
"2018/03/05",1010.9,1018.8,1002.6
"2018/03/06",1022.8,1031.6,1011.7
"2018/03/07",1035.2,1037.4,1031.6
"2018/03/08",1023.8,1034.4,1010.2
"2018/03/09",1007.5,1014.3,1003.6
"2018/03/10",1018.8,1022.9,1014.0
"2018/03/11",1020.3,1023.1,1017.0
"2018/03/12",1022.2,1024.9,1019.1
"2018/03/13",1022.5,1025.0,1020.2
"2018/03/14",1020.8,1022.3,1019.1
"2018/03/15",1017.8,1022.2,1012.4
"2018/03/16",1013.4,1021.8,1009.4
"2018/03/17",1027.3,1030.4,1021.4
"2018/03/18",1025.5,1030.0,1020.9
"2018/03/19",1017.2,1021.0,1014.4
"2018/03/20",1020.0,1023.7,1016.1
"2018/03/21",1019.1,1023.5,1008.4
"2018/03/22", 998.4,1008.5, 994.3
"2018/03/23",1012.6,1019.5,1003.6
"2018/03/24",1019.8,1022.2,1018.0
"2018/03/25",1020.9,1022.9,1017.8
"2018/03/26",1020.5,1022.8,1017.7
"2018/03/27",1019.5,1021.8,1017.8
"2018/03/28",1017.3,1019.2,1015.1
"2018/03/29",1015.2,1017.5,1011.9
"2018/03/30",1022.2,1026.0,1015.5
"2018/03/31",1024.1,1027.0,1021.0
"2018/04/01",1018.6,1021.0,1015.9
"2018/04/02",1018.3,1021.2,1016.5
"2018/04/03",1018.5,1021.1,1015.7
"2018/04/04",1013.3,1016.7,1007.9
"2018/04/05",1020.6,1023.6,1015.4
"2018/04/06",1008.5,1018.2, 999.8
"2018/04/07",1000.1,1007.3, 996.5
"2018/04/08",1012.3,1017.9,1007.2
"2018/04/09",1016.0,1019.2,1011.7
"2018/04/10",1022.9,1025.4,1019.1
"2018/04/11",1013.4,1021.1,1008.3
"2018/04/12",1010.4,1015.3,1007.2
"2018/04/13",1021.0,1026.5,1014.9
"2018/04/14",1020.1,1026.3,1008.5
"2018/04/15",1001.1,1008.8, 995.1
"2018/04/16",1016.7,1024.6,1008.7
"2018/04/17",1025.4,1027.7,1022.8
"2018/04/18",1017.4,1023.0,1014.3
"2018/04/19",1017.6,1019.6,1015.5
"2018/04/20",1018.7,1023.6,1015.1
"2018/04/21",1021.0,1023.3,1018.7
"2018/04/22",1018.5,1020.3,1016.3
"2018/04/23",1022.0,1023.8,1019.8
"2018/04/24",1015.4,1021.6,1009.6
"2018/04/25",1003.0,1009.6, 997.9
"2018/04/26",1010.8,1015.6,1003.5
"2018/04/27",1011.1,1015.4,1007.2
"2018/04/28",1013.9,1018.0,1008.5
"2018/04/29",1018.2,1019.5,1016.8
"2018/04/30",1017.5,1019.1,1015.4
"2018/05/01",1016.7,1018.4,1015.4
"2018/05/02",1014.3,1017.7,1007.4
"2018/05/03",1001.2,1007.4, 997.3
"2018/05/04",1008.8,1014.8,1005.0
"2018/05/05",1015.2,1017.0,1013.2
"2018/05/06",1013.6,1017.6,1008.8
"2018/05/07",1008.2,1010.1,1005.2
"2018/05/08",1014.2,1018.9,1008.3
"2018/05/09",1016.7,1018.9,1014.8
"2018/05/10",1018.9,1020.8,1017.3
"2018/05/11",1019.4,1022.0,1016.7
"2018/05/12",1016.8,1018.4,1015.0
"2018/05/13",1011.5,1016.0,1003.7
"2018/05/14",1007.0,1012.3,1003.7
"2018/05/15",1013.1,1014.4,1011.7
"2018/05/16",1012.4,1013.8,1010.2
"2018/05/17",1007.9,1010.4,1006.2
"2018/05/18",1007.5,1009.8,1003.4
"2018/05/19",1004.5,1012.3,1000.0
"2018/05/20",1019.3,1022.2,1012.1
"2018/05/21",1021.1,1022.8,1019.5
"2018/05/22",1019.8,1021.6,1017.9
"2018/05/23",1011.7,1017.9,1004.5
"2018/05/24",1005.4,1009.1,1003.0
"2018/05/25",1007.8,1009.9,1005.0
"2018/05/26",1010.7,1012.3,1007.7
"2018/05/27",1011.9,1012.9,1011.1
"2018/05/28","  * ","  * ","  * "
"2018/05/29",1016.2,1017.2,1015.0
"2018/05/30",1016.6,1017.2,1015.9
"2018/05/31",1006.5,1008.2,1004.6
"2018/06/01",1011.4,1017.0,1005.8
"2018/06/02",1017.0,1018.3,1015.3
"2018/06/03",1018.0,1019.0,1016.6
"2018/06/04",1017.1,1018.5,1015.3
"2018/06/05",1016.0,1017.7,1014.0
"2018/06/06",1014.1,1015.8,1012.6
"2018/06/07",1014.0,1015.5,1012.3
"2018/06/08",1009.3,1013.6,1004.5
"2018/06/09",1005.3,1010.1,1003.0
"2018/06/10",1011.0,1013.2,1008.2
"2018/06/11", 998.5,1008.3, 991.6
"2018/06/12", 997.1,1000.0, 994.5
"2018/06/13",1004.1,1008.7, 999.6
"2018/06/14",1011.4,1013.1,1008.3
"2018/06/15",1010.8,1012.4,1008.8
"2018/06/16",1014.1,1017.4,1010.8
"2018/06/17",1017.3,1018.7,1016.0
"2018/06/18",1013.7,1016.1,1010.8
"2018/06/19",1010.6,1012.1,1009.7
"2018/06/20",1005.9,1011.8,1001.4
"2018/06/21",1003.3,1006.0,1000.4
"2018/06/22",1008.7,1011.0,1005.7
"2018/06/23",1007.8,1010.8,1004.2
"2018/06/24",1006.4,1008.7,1004.8
"2018/06/25",1012.4,1017.1,1008.5
"2018/06/26",1015.2,1017.4,1011.3
"2018/06/27",1006.7,1011.4,1004.3
"2018/06/28",1006.9,1009.3,1004.5
"2018/06/29",1011.8,1015.5,1008.5
"2018/06/30",1017.9,1020.2,1015.3
"2018/07/01",1019.5,1021.4,1017.6
"2018/07/02",1015.5,1018.5,1012.5
"2018/07/03",1010.1,1012.6,1007.8
"2018/07/04",1005.6,1008.0,1003.2
"2018/07/05",1005.3,1008.2,1002.7
"2018/07/06",1012.0,1015.3,1007.6
"2018/07/07",1014.0,1015.8,1013.0
"2018/07/08",1017.0,1020.2,1015.0
"2018/07/09",1020.1,1021.6,1018.9
"2018/07/10",1019.2,1020.8,1017.0
"2018/07/11",1015.7,1018.2,1013.7
"2018/07/12",1014.4,1015.9,1012.6
"2018/07/13",1010.7,1012.6,1008.9
"2018/07/14",1011.8,1014.2,1010.1
"2018/07/15",1013.1,1014.3,1011.3
"2018/07/16",1012.7,1013.9,1011.1
"2018/07/17",1012.1,1013.3,1010.4
"2018/07/18",1011.2,1012.1,1009.8
"2018/07/19",1011.7,1012.7,1010.5
"2018/07/20",1012.4,1013.8,1011.0
"2018/07/21",1011.8,1013.1,1010.3
"2018/07/22",1009.5,1011.5,1007.3
"2018/07/23",1006.9,1008.8,1004.7
"2018/07/24",1008.1,1009.9,1006.4
"2018/07/25",1010.8,1012.4,1009.3
"2018/07/26",1011.8,1013.0,1010.9
"2018/07/27",1009.5,1009.9,1009.1
"2018/07/28",1004.6,1009.2, 999.9
"2018/07/29",1007.2,1010.8,1003.5
"2018/07/30",1010.3,1011.6,1009.1
"2018/07/31",1007.7,1009.9,1005.4
"2018/08/01",1004.6,1005.8,1002.5
"2018/08/02",1006.1,1007.5,1004.9
"2018/08/03",1007.6,1009.4,1006.5
"2018/08/04",1008.5,1009.6,1007.1
"2018/08/05",1005.6,1008.1,1003.1
"2018/08/06",1005.9,1008.9,1003.9
"2018/08/07",1008.7,1010.4,1006.5
"2018/08/08",1001.4,1006.6, 996.7
"2018/08/09", 996.2,1001.6, 990.1
"2018/08/10",1002.8,1004.2,1001.1
"2018/08/11",1005.9,1009.3,1003.3
"2018/08/12",1011.2,1013.3,1008.7
"2018/08/13",1012.8,1014.0,1011.3
"2018/08/14",1014.1,1015.7,1013.1
"2018/08/15",1014.1,1016.1,1011.0
"2018/08/16",1006.9,1011.0,1003.6
"2018/08/17",1008.6,1013.3,1004.7
"2018/08/18",1014.4,1015.8,1012.8
"2018/08/19",1016.1,1017.7,1014.5
"2018/08/20",1014.9,1016.3,1013.6
"2018/08/21",1013.5,1014.7,1012.2
"2018/08/22",1014.7,1016.9,1013.1
"2018/08/23",1016.0,1017.9,1013.7
"2018/08/24",1011.2,1013.7,1009.3
"2018/08/25",1010.6,1012.3,1009.0
"2018/08/26",1011.4,1012.6,1009.4
"2018/08/27",1013.2,1015.9,1011.2
"2018/08/28",1013.7,1014.8,1012.7
"2018/08/29",1014.3,1015.3,1013.3
"2018/08/30",1012.4,1014.7,1009.8
"2018/08/31",1009.1,1011.0,1006.6
"2018/09/01","  * ","  * ","  * "
"2018/09/02","  * ","  * ","  * "
"2018/09/03","  * ","  * ","  * "
"2018/09/04",1003.5,1008.9,1001.0
"2018/09/05",1003.0,1005.7,1000.6
"2018/09/06",1008.4,1010.8,1005.5
"2018/09/07",1010.0,1011.1,1008.6
"2018/09/08",1012.7,1016.4,1010.3
"2018/09/09","  * ","  * ","  * "
"2018/09/10","  * ","  * ","  * "
"2018/09/11",1022.8,1024.4,1021.5
"2018/09/12",1024.4,1025.6,1023.2
"2018/09/13",1021.7,1023.3,1020.0
"2018/09/14",1020.2,1021.8,1018.6
"2018/09/15",1016.7,1019.0,1015.2
"2018/09/16",1014.1,1015.4,1012.7
"2018/09/17",1012.7,1016.0,1011.1
"2018/09/18",1015.4,1017.3,1013.7
"2018/09/19",1015.7,1016.8,1014.5
"2018/09/20",1016.5,1018.3,1014.7
"2018/09/21",1013.4,1016.0,1010.3
"2018/09/22",1010.7,1014.6,1008.7
"2018/09/23",1017.4,1018.9,1014.6
"2018/09/24",1016.3,1017.6,1015.0
"2018/09/25",1015.9,1017.6,1014.3
"2018/09/26",1018.2,1019.9,1016.3
"2018/09/27",1014.2,1017.6,1010.5
"2018/09/28",1018.0,1021.8,1013.8
"2018/09/29",1020.6,1022.2,1017.4
"2018/09/30",1007.2,1017.5, 988.8
"2018/10/01", 994.9,1004.7, 979.2
"2018/10/02",1013.2,1018.4,1004.7
"2018/10/03",1020.8,1023.8,1017.7
"2018/10/04",1026.9,1029.0,1023.6
"2018/10/05",1026.6,1029.2,1022.4
"2018/10/06",1016.7,1022.4,1009.3
"2018/10/07",1008.8,1012.8,1006.2
"2018/10/08",1015.8,1017.4,1012.7
"2018/10/09",1016.7,1018.1,1015.4
"2018/10/10",1017.0,1018.0,1015.8
"2018/10/11",1014.9,1016.5,1013.2
"2018/10/12",1017.9,1023.5,1012.7
"2018/10/13",1024.3,1025.8,1022.9
"2018/10/14",1021.7,1023.4,1020.0
"2018/10/15",1019.8,1022.1,1017.4
"2018/10/16",1014.7,1017.7,1010.6
"2018/10/17",1012.2,1016.0,1009.3
"2018/10/18",1017.4,1019.3,1014.9
"2018/10/19",1018.8,1020.3,1016.9
"2018/10/20",1018.4,1019.7,1016.7
"2018/10/21",1021.3,1023.3,1019.0
"2018/10/22",1024.4,1025.7,1023.1
"2018/10/23",1022.5,1025.4,1018.0
"2018/10/24",1015.9,1018.7,1014.0
"2018/10/25",1019.2,1022.0,1016.4
"2018/10/26",1021.3,1023.7,1017.0
"2018/10/27",1009.3,1017.2,1005.0
"2018/10/28",1010.1,1011.5,1008.2
"2018/10/29",1010.0,1012.1,1008.3
"2018/10/30",1011.6,1014.1,1009.9
"2018/10/31",1014.0,1014.9,1013.3
"2018/11/01","  * ","  * ","  * "
"2018/11/02",1026.2,1027.5,1024.9
"2018/11/03",1026.3,1027.9,1024.7
"2018/11/04",1023.4,1025.3,1021.6
"2018/11/05",1022.6,1023.8,1021.4
"2018/11/06",1021.6,1022.9,1019.9
"2018/11/07",1023.9,1025.6,1021.6
"2018/11/08",1024.8,1026.4,1023.1
"2018/11/09",1020.6,1023.1,1018.3
"2018/11/10",1017.6,1018.4,1017.0
"2018/11/11","  * ","  * ","  * "
"2018/11/12","  * ","  * ","  * "
"2018/11/13",1014.1,1014.6,1013.5
"2018/11/14",1016.7,1020.4,1013.5
"2018/11/15",1023.1,1025.9,1020.4
"2018/11/16",1022.7,1026.0,1018.3
"2018/11/17",1017.3,1019.5,1015.2
"2018/11/18",1019.6,1021.9,1016.9
"2018/11/19",1014.9,1017.0,1013.0
"2018/11/20",1020.0,1023.8,1015.6
"2018/11/21",1022.4,1025.3,1018.4
"2018/11/22",1012.2,1018.6,1007.5
"2018/11/23",1019.7,1025.6,1013.3
"2018/11/24",1026.8,1028.2,1025.6
"2018/11/25","  * ","  * ","  * "
"2018/11/26","  * ","  * ","  * "
"2018/11/27",1019.8,1021.7,1018.8
"2018/11/28",1017.5,1019.4,1015.3
"2018/11/29",1019.4,1021.6,1015.9
"2018/11/30",1022.4,1024.0,1020.1
"2018/12/01",1021.4,1027.3,1017.9
"2018/12/02",1030.3,1032.3,1027.2
"2018/12/03",1025.9,1028.7,1022.5
"2018/12/04",1015.0,1022.6,1008.2
"2018/12/05",1018.0,1025.8,1008.9
"2018/12/06",1018.2,1025.6,1010.2
"2018/12/07",1011.4,1014.6,1009.2
"2018/12/08",1016.3,1018.3,1014.3
"2018/12/09",1023.0,1027.9,1016.3
"2018/12/10",1029.2,1030.9,1027.1
"2018/12/11",1029.6,1033.3,1022.7
"2018/12/12",1014.6,1022.8,1010.4
"2018/12/13",1021.0,1023.2,1017.2
"2018/12/14",1021.5,1025.2,1017.4
"2018/12/15",1027.2,1029.2,1024.6
"2018/12/16",1024.0,1029.0,1015.5
"2018/12/17",1008.1,1015.6,1003.7
"2018/12/18",1011.9,1015.3,1005.9
"2018/12/19",1016.0,1018.8,1012.8
"2018/12/20",1019.8,1022.9,1016.7
"2018/12/21",1025.1,1027.7,1022.5
"2018/12/22",1019.9,1022.7,1017.5
"2018/12/23",1015.6,1020.4,1009.6
"2018/12/24",1016.8,1022.5,1009.7
"2018/12/25",1022.5,1025.1,1019.1
"2018/12/26",1015.4,1019.2,1010.4
"2018/12/27",1007.8,1010.7,1004.7
"2018/12/28",1011.9,1015.5,1005.8
"2018/12/29",1016.4,1020.7,1013.3
"2018/12/30",1023.5,1028.7,1020.5
"2018/12/31",1029.0,1031.2,1027.2
